When you browse on this site, cookies collect data to enhance your experience and personalize the content and advertising you see.
Visit our Privacy Policy to learn more. By continuing to use the site, you agree to this use of cookies and data.
  • In Romania
  • List of Countries
  • For 7 days
  • Water Temperature
  • Satellite Maps
  • Weather Map
  • Weather Widgets
  • user-avatar
    Login

    Hourly Weather La Rioja

    Today, 17 June, Monday

    Time Temperature Precipitation Wind Pressure Humidity
    00:00 +6°C° 0 mm 2 mps 720 mmHg 62%
    01:00 +7°C° 0 mm 1 mps 720 mmHg 65%
    02:00 +6°C° 0 mm 1 mps 719 mmHg 66%
    03:00 +6°C° 0 mm 1 mps 719 mmHg 67%
    04:00 +5°C° 0 mm 1 mps 718 mmHg 68%
    05:00 +5°C° 0 mm 1 mps 718 mmHg 70%
    06:00 +5°C° 0 mm 1 mps 718 mmHg 68%
    07:00 +6°C° 0 mm 1 mps 718 mmHg 67%
    08:00 +6°C° 0 mm 1 mps 718 mmHg 65%
    09:00 +8°C° 0 mm 1 mps 718 mmHg 60%
    10:00 +9°C° 0 mm 1 mps 717 mmHg 54%
    11:00 +10°C° 0 mm 2 mps 716 mmHg 48%
    12:00 +10°C° 0 mm 2 mps 715 mmHg 48%
    13:00 +12°C° 0 mm 2 mps 714 mmHg 47%
    14:00 +13°C° 0 mm 2 mps 713 mmHg 46%
    15:00 +13°C° 0 mm 2 mps 713 mmHg 48%
    16:00 +12°C° 0 mm 2 mps 712 mmHg 50%
    17:00 +12°C° 0 mm 2 mps 712 mmHg 52%
    18:00 +10°C° 0 mm 2 mps 712 mmHg 56%
    19:00 +9°C° 0 mm 2 mps 713 mmHg 60%
    20:00 +8°C° 0 mm 2 mps 714 mmHg 64%
    21:00 +8°C° 0 mm 2 mps 714 mmHg 65%
    22:00 +8°C° 0 mm 2 mps 715 mmHg 67%
    23:00 +7°C° 0 mm 2 mps 716 mmHg 68%

    Tomorrow, 18 June, Tuesday

    Time Temperature Precipitation Wind Pressure Humidity
    00:00 +7°C° 0 mm 2 mps 716 mmHg 69%
    01:00 +7°C° 0 mm 1 mps 716 mmHg 70%
    02:00 +7°C° 0 mm 1 mps 716 mmHg 71%
    03:00 +6°C° 0 mm 1 mps 716 mmHg 71%
    04:00 +6°C° 0 mm 1 mps 716 mmHg 70%
    05:00 +6°C° 0 mm 1 mps 716 mmHg 70%
    06:00 +6°C° 0 mm 1 mps 716 mmHg 67%
    07:00 +5°C° 0 mm 0 mps 716 mmHg 64%
    08:00 +6°C° 0 mm 0 mps 717 mmHg 61%
    09:00 +9°C° 0 mm 1 mps 717 mmHg 52%
    10:00 +12°C° 0 mm 1 mps 717 mmHg 43%
    11:00 +14°C° 0 mm 2 mps 718 mmHg 34%
    12:00 +15°C° 0 mm 1 mps 717 mmHg 31%
    13:00 +16°C° 0 mm 1 mps 717 mmHg 27%
    14:00 +18°C° 0 mm 1 mps 716 mmHg 23%
    15:00 +18°C° 0 mm 1 mps 716 mmHg 25%
    16:00 +18°C° 0 mm 1 mps 716 mmHg 26%
    17:00 +16°C° 0 mm 1 mps 716 mmHg 27%
    18:00 +15°C° 0 mm 1 mps 716 mmHg 30%
    19:00 +13°C° 0 mm 1 mps 716 mmHg 33%
    20:00 +11°C° 0 mm 1 mps 717 mmHg 36%
    21:00 +11°C° 0 mm 1 mps 717 mmHg 34%
    22:00 +11°C° 0 mm 1 mps 717 mmHg 32%
    23:00 +11°C° 0 mm 1 mps 718 mmHg 30%

    Day after tomorrow, 19 June, Wednesday

    Time Temperature Precipitation Wind Pressure Humidity
    00:00 +10°C° 0 mm 1 mps 718 mmHg 31%
    01:00 +10°C° 0 mm 1 mps 718 mmHg 32%
    02:00 +10°C° 0 mm 1 mps 718 mmHg 33%
    03:00 +9°C° 0 mm 1 mps 718 mmHg 32%
    04:00 +9°C° 0 mm 1 mps 718 mmHg 32%
    05:00 +9°C° 0 mm 1 mps 718 mmHg 31%
    06:00 +9°C° 0 mm 1 mps 718 mmHg 29%
    07:00 +10°C° 0 mm 1 mps 718 mmHg 27%
    08:00 +10°C° 0 mm 1 mps 718 mmHg 25%
    09:00 +13°C° 0 mm 1 mps 719 mmHg 21%
    10:00 +16°C° 0 mm 1 mps 719 mmHg 17%
    11:00 +21°C° 0 mm 1 mps 720 mmHg 13%
    12:00 +21°C° 0 mm 1 mps 719 mmHg 14%
    13:00 +21°C° 0 mm 2 mps 718 mmHg 14%
    14:00 +23°C° 0 mm 2 mps 718 mmHg 14%
    15:00 +21°C° 0 mm 2 mps 717 mmHg 17%
    16:00 +20°C° 0 mm 2 mps 717 mmHg 20%
    17:00 +19°C° 0 mm 2 mps 717 mmHg 23%
    18:00 +17°C° 0 mm 2 mps 717 mmHg 27%
    19:00 +15°C° 0 mm 1 mps 717 mmHg 30%
    20:00 +13°C° 0 mm 1 mps 717 mmHg 34%
    21:00 +13°C° 0 mm 1 mps 717 mmHg 34%
    22:00 +13°C° 0 mm 1 mps 717 mmHg 34%
    23:00 +13°C° 0 mm 1 mps 717 mmHg 34%

    20 June, Thursday

    Time Temperature Precipitation Wind Pressure Humidity
    00:00 +12°C° 0 mm 1 mps 717 mmHg 34%
    01:00 +12°C° 0 mm 1 mps 716 mmHg 35%
    02:00 +11°C° 0 mm 1 mps 716 mmHg 36%
    03:00 +11°C° 0 mm 1 mps 716 mmHg 37%
    04:00 +10°C° 0 mm 1 mps 715 mmHg 38%
    05:00 +10°C° 0 mm 1 mps 715 mmHg 40%
    06:00 +10°C° 0 mm 1 mps 715 mmHg 40%
    07:00 +10°C° 0 mm 1 mps 715 mmHg 41%
    08:00 +10°C° 0 mm 1 mps 716 mmHg 41%
    09:00 +13°C° 0 mm 2 mps 716 mmHg 37%
    10:00 +15°C° 0 mm 2 mps 716 mmHg 32%
    11:00 +18°C° 0 mm 2 mps 716 mmHg 28%
    12:00 +18°C° 0 mm 2 mps 715 mmHg 27%
    13:00 +19°C° 0 mm 2 mps 714 mmHg 26%
    14:00 +20°C° 0 mm 2 mps 713 mmHg 25%
    15:00 +20°C° 0 mm 1 mps 713 mmHg 28%
    16:00 +20°C° 0 mm 1 mps 712 mmHg 30%
    17:00 +20°C° 0 mm 1 mps 712 mmHg 32%
    18:00 +18°C° 0 mm 1 mps 712 mmHg 35%
    19:00 +15°C° 0 mm 1 mps 712 mmHg 38%
    20:00 +14°C° 0 mm 1 mps 712 mmHg 41%
    21:00 +13°C° 0 mm 1 mps 712 mmHg 41%
    22:00 +13°C° 0 mm 1 mps 712 mmHg 42%
    23:00 +13°C° 0 mm 1 mps 712 mmHg 42%

    21 June, Friday

    Time Temperature Precipitation Wind Pressure Humidity
    00:00 +12°C° 0 mm 1 mps 712 mmHg 46%
    01:00 +12°C° 0 mm 1 mps 712 mmHg 50%
    02:00 +12°C° 0 mm 1 mps 712 mmHg 55%
    03:00 +11°C° 0 mm 1 mps 712 mmHg 59%
    04:00 +11°C° 0 mm 1 mps 711 mmHg 64%
    05:00 +11°C° 0 mm 1 mps 711 mmHg 68%
    06:00 +11°C° 0 mm 1 mps 712 mmHg 66%
    07:00 +11°C° 0 mm 1 mps 712 mmHg 65%
    08:00 +11°C° 0 mm 1 mps 712 mmHg 63%
    09:00 +14°C° 0 mm 2 mps 713 mmHg 57%
    10:00 +16°C° 0 mm 2 mps 713 mmHg 52%
    11:00 +18°C° 0 mm 2 mps 714 mmHg 46%
    12:00 +19°C° 0 mm 2 mps 714 mmHg 45%
    13:00 +19°C° 0 mm 2 mps 713 mmHg 44%
    14:00 +20°C° 0 mm 2 mps 713 mmHg 44%
    15:00 +19°C° 0 mm 2 mps 713 mmHg 47%
    16:00 +19°C° 0 mm 2 mps 713 mmHg 51%
    17:00 +18°C° 0 mm 2 mps 713 mmHg 54%
    18:00 +18°C° 0 mm 1 mps 714 mmHg 58%
    19:00 +15°C° 0 mm 1 mps 714 mmHg 61%
    20:00 +14°C° 0 mm 1 mps 714 mmHg 64%
    21:00 +14°C° 0 mm 1 mps 715 mmHg 66%
    22:00 +13°C° 0 mm 1 mps 715 mmHg 68%
    23:00 +12°C° 0 mm 0 mps 715 mmHg 70%

    22 June, Saturday

    Time Temperature Precipitation Wind Pressure Humidity
    00:00 +11°C° 0 mm 0 mps 715 mmHg 71%
    01:00 +11°C° 0 mm 0 mps 715 mmHg 72%
    02:00 +11°C° 0 mm 0 mps 714 mmHg 72%
    03:00 +10°C° 0 mm 0 mps 714 mmHg 74%
    04:00 +10°C° 0 mm 0 mps 714 mmHg 75%
    05:00 +9°C° 0 mm 0 mps 714 mmHg 77%
    06:00 +10°C° 0 mm 0 mps 714 mmHg 75%
    07:00 +10°C° 0 mm 0 mps 715 mmHg 72%
    08:00 +10°C° 0 mm 0 mps 715 mmHg 70%
    09:00 +13°C° 0 mm 0 mps 716 mmHg 60%
    10:00 +16°C° 0 mm 0 mps 716 mmHg 51%
    11:00 +21°C° 0 mm 1 mps 717 mmHg 42%
    12:00 +22°C° 0 mm 1 mps 716 mmHg 40%
    13:00 +23°C° 0 mm 1 mps 715 mmHg 38%
    14:00 +23°C° 0 mm 1 mps 715 mmHg 36%
    15:00 +23°C° 0 mm 1 mps 715 mmHg 40%
    16:00 +22°C° 0 mm 1 mps 715 mmHg 44%
    17:00 +21°C° 0 mm 1 mps 714 mmHg 48%
    18:00 +20°C° 0 mm 1 mps 715 mmHg 51%
    19:00 +18°C° 0 mm 1 mps 715 mmHg 55%
    20:00 +16°C° 0 mm 1 mps 715 mmHg 59%
    21:00 +15°C° 0 mm 1 mps 715 mmHg 60%
    22:00 +14°C° 0 mm 0 mps 715 mmHg 61%
    23:00 +13°C° 0 mm 0 mps 715 mmHg 63%
    Show more